Regional Weather Roundup
Issued by NWS

Home | Current Version | Previous Version | Graphics & Text | Print | Product List | Glossary On
Versions: 1 2 3 4 5 6 7 8 9 10 11 12 13 14 15 16 17 18 19 20 21 22 23 24 25 26 27 28 29 30 31 32 33 34 35 36 37 38 39 40 41 42 43 44 45 46 47 48 49 50
000
ASUS43 KDTX 190301
RWRMI
MICHIGAN HOURLY REGIONAL WEATHER ROUNDUP
NATIONAL WEATHER SERVICE DETROIT/PONTIAC MI
1000 PM EST SAT NOV 18 2017

NOTE: "FAIR" INDICATES FEW OR NO CLOUDS BELOW 12,000 FEET WITH NO
SIGNIFICANT WEATHER AND/OR OBSTRUCTION TO VISIBILITY.

MIZ047>049-052>055-059>063-066>070-074>076-081>083-190400-
SOUTHEAST LOWER MICHIGAN

CITY           SKY/WX    TMP DP  RH WIND       PRES   REMARKS
ADRIAN         CLOUDY    37  33  85 N15       29.49R WCI  28
ALMA           CLOUDY    38  34  85 NW14G21   29.52R WCI  30
ANN ARBOR      CLOUDY    36  34  92 NW17G24   29.45R WCI  26
BAD AXE        LGT RAIN  37  36  96 N16G23    29.41R WCI  27
CARO           LGT RAIN  37  35  92 N15G28    29.44R WCI  28
DETROIT CITY   LGT RAIN  42  36  79 NW13G24   29.40R
DETROIT        LGT RAIN  37  34  89 NW14      29.43R WCI  28
FLINT          CLOUDY    36  33  89 NW16      29.46R WCI  26
GROSSE ILE     LGT SNOW  36  34  94 NW20      29.40R WCI  25
HILLSDALE      CLOUDY    36  32  87 NW15G23   29.50R WCI  26
HOWELL         CLOUDY    36  35  95 NW15G22   29.47R WCI  27

CITY           SKY/WX    TMP DP  RH WIND       PRES   REMARKS
JACKSON        CLOUDY    38  33  82 NW13G26   29.50R WCI  30
LAMBERTVILLE   LGT RAIN  38  35  88 NW12G20   29.47R WCI  31
LANSING        CLOUDY    38  35  89 NW14G21   29.52R WCI  30
LAPEER         LGT RAIN  36  35  96 N18G24    29.42R WCI  25
MASON          CLOUDY    38  35  87 NW14G23   29.50R WCI  30
MONROE         LGT RAIN  38  35  89 NW15G24   29.43R WCI  29
MT. CLEMENS    FLURRIES  35  35 100 NW17G24   29.35R WCI  25
PONTIAC        LGT SNOW  35  34  96 NW18G25   29.40R FOG     WCI  24
PORT HOPE        N/A     39  35  86 N15G29    29.38R WCI  31
PORT HURON     LGT SNOW  34  32  93 NW10G20   29.35R WCI  26
TRI CITIES     CLOUDY    38  35  89 NW16      29.50R WCI  29
MIDLAND        CLOUDY    38  34  84 NW10G18   29.50R WCI  31
TROY           FLURRIES  38  35  89 NW15G29   29.42R WCI  29
SAGINAW HB     CLOUDY    36  32  87 NW16G25   29.47R WCI  26
$$
MIZ043>046-050>051-056>058-064>065-071>073-077>080-190400-
SOUTHWEST LOWER MICHIGAN

CITY           SKY/WX    TMP DP  RH WIND       PRES   REMARKS
BATTLE CREEK   CLOUDY    39  36  89 NW14G22   29.56R WCI  31
BENTON HARBOR  CLOUDY    41  32  70 NW16G33   29.66R
BIG RAPIDS     CLOUDY    37  31  81 NW14G21   29.56R WCI  28
COLDWATER      LGT RAIN  38  37  96 NW15G21   29.55R WCI  30
FREMONT        CLOUDY    37  34  87 N17G25    29.60R WCI  28
HOLLAND        CLOUDY    41  31  67 N13G20    29.63R
GRAND RAPIDS   CLOUDY    40  36  86 NW17      29.57R WCI  31
IONIA          CLOUDY    38  35  87 NW12G18   29.54R WCI  31
KALAMAZOO      LGT RAIN  39  34  82 NW17G25   29.58R WCI  30
LUDINGTON      CLOUDY    36  31  83 N17G26    29.65R WCI  26
MARSHALL       LGT RAIN  37  37  98 NW6       29.53R WCI  33
MOUNT PLEASANT CLOUDY    39  32  76 NW13G21   29.53R WCI  31
MUSKEGON       MOCLDY    39  32  76 NW17G28   29.63R WCI  30
SOUTH HAVEN    LGT SNOW  41  36  81 N17G31    29.65R
$$
MIZ016>042-190400-
NORTHERN LOWER MICHIGAN

CITY           SKY/WX    TMP DP  RH WIND       PRES   REMARKS
ALPENA         LGT RAIN  35  34  96 N10       29.49R WCI  27
BEAVER ISLAND  LGT SNOW  34  32  92 NW13G22   29.62R WCI  25
BELLAIRE       CLOUDY    36  33  88 NW3       29.60R
CADILLAC       CLOUDY    34  31  88 N17G23    29.55R WCI  24
CHARLEVOIX     CLOUDY    37  29  72 NW22G32   29.63R WCI  27
FRANKFORT      CLOUDY    37  32  82 NW17G26   29.65R WCI  27
GAYLORD        CLOUDY    33  27  78 NW12G18   29.53R WCI  24
GRAYLING       CLOUDY    34  29  80 NW10      29.54R WCI  26
HARBOR SPRINGS CLOUDY    36  29  77 N8        29.58R WCI  29
MANISTEE       LGT RAIN  36  33  89 NW15G29   29.65R WCI  27
OSCODA         CLOUDY    36  34  92 N14G22    29.44R WCI  27
PELLSTON       CLOUDY    36  29  75 NW16      29.57R WCI  26
ROGERS CITY    CLOUDY    37  31  80 N16       29.52R WCI  27
TRAVERSE CITY  LGT RAIN  36  32  85 N16G28    29.61R WCI  26
$$
MIZ007>008-015-190400-
EASTERN UPPER MICHIGAN

CITY           SKY/WX    TMP DP  RH WIND       PRES   REMARKS
KINROSS        CLOUDY    34  29  82 N9        29.55R WCI  27
MACKINAC ISLAN CLOUDY    36  32  85 NW13G21   29.56R WCI  27
NEWBERRY       CLOUDY    32  29  90 NW8       29.60R WCI  25
S. S. MARIE    CLOUDY    36  25  64 N7G21     29.55R WCI  30
MUNISING         N/A     34  29  82 N23G33    29.68R WCI  22
$$
MIZ004>006-011>014-085-190400-
CENTRAL UPPER MICHIGAN

CITY           SKY/WX    TMP DP  RH WIND       PRES   REMARKS
MANISTIQUE     CLOUDY    32  26  78 NW18G32   29.64R WCI  20
ESCANABA       CLOUDY    31  24  75 NW10G16   29.71R WCI  22
MENOMINEE      CLOUDY    34  26  72 N8        29.74R WCI  27
SAWYER-GWINN   CLOUDY    28  25  86 SW16G25   29.70R WCI  17
$$
MIZ001>003-009>011-084-190400-
WESTERN UPPER MICHIGAN

CITY           SKY/WX    TMP DP  RH WIND       PRES   REMARKS
IRON MOUNTAIN  CLOUDY    29  23  78 NW17G25   29.72R WCI  17
HOUGHTON       CLOUDY    25  17  72 NW23G32   29.75R WCI  10
COPPER HARBOR    N/A     30  24  78 N22G30    29.75R WCI  17
IRONWOOD       FLURRIES N/A N/A N/A NW10      29.84R
$$

ABBREVIATIONS USED IN REMARKS
   TC - TEMPERATURE IN CELSIUS
  WCI - WIND CHILL INDEX
   HX - HEAT INDEX
  VSB - VISIBILITY





USA.gov is the U.S. government's official web portal to all federal, state and local government web resources and services.